CW9809 Weather Reports


Display with metric or nautical units.
time (UTC)temp
F
wind
direction
speed
MPH
gust
MPH
rain 1hr
in
rain 24hr
in
rain mn
in
humidity
%
barometer
mb
20260508094518 45 290 0.0 0.0 0.00 0.00 0.00 67 1010.9
20260508093033 45 323 0.0 0.0 0.00 0.00 0.00 65 1010.9
20260508091528 45 323 0.0 0.0 0.00 0.00 0.00 64 1010.8
20260508090011 45 322 0.0 0.0 0.00 0.00 0.00 63 1010.8
20260508084517 45 344 0.0 0.0 0.00 0.00 0.00 60 1010.8
20260508083022 46 342 0.0 0.0 0.00 0.01 0.00 59 1010.8
20260508081526 46 333 0.0 2.0 0.00 0.01 0.00 59 1010.8
20260508080028 46 333 0.0 0.0 0.00 0.01 0.00 59 1010.9
20260508074514 46 277 0.0 0.0 0.00 0.03 0.00 57 1010.8
20260508073018 46 331 0.0 0.0 0.00 0.06 0.00 57 1010.7
20260508071531 46 330 0.0 0.0 0.00 0.08 0.00 57 1010.8
20260508070027 46 27 0.0 0.0 0.00 0.09 0.00 56 1010.8
20260508064531 46 338 0.0 0.0 0.00 0.10 0.00 59 1010.8
20260508063014 46 325 0.0 5.0 0.00 0.10 0.00 57 1010.2
20260508061521 45 17 0.0 0.0 0.00 0.11 0.00 57 1010.0
20260508060026 45 18 0.0 0.0 0.00 0.11 0.00 58 1009.7
20260508054605 45 17 0.0 8.0 0.00 0.11 0.00 58 1009.5
20260508053011 44 327 0.0 0.0 0.00 0.11 0.00 61 1009.7
20260508051514 45 15 0.0 0.0 0.00 0.11 0.00 62 1009.6
20260508050018 45 9 0.0 0.0 0.00 0.11 0.00 57 1009.7
20260508044504 45 360 0.0 0.0 0.00 0.11 0.00 57 1009.7
20260508043008 46 5 0.0 0.0 0.00 0.11 0.00 56 1009.8
20260508041514 46 5 0.0 0.0 0.00 0.11 0.00 58 1009.9
20260508040016 45 5 0.0 0.0 0.00 0.11 0.00 57 1009.9
20260508034528 45 360 0.0 0.0 0.00 0.11 0.11 59 1010.0
20260508033008 45 360 0.0 0.0 0.00 0.11 0.11 60 1010.1
20260508031511 46 5 0.0 0.0 0.00 0.11 0.11 60 1010.1
20260508030014 46 5 0.0 0.0 0.00 0.11 0.11 61 1010.1
20260508024518 46 5 0.0 0.0 0.00 0.11 0.11 61 1010.1
20260508023023 46 360 0.0 0.0 0.00 0.12 0.11 63 1010.2
20260508021504 47 360 0.0 0.0 0.00 0.13 0.11 62 1010.2
20260508020008 47 5 0.0 0.0 0.00 0.15 0.11 61 1010.1
20260508014513 48 5 0.0 0.0 0.00 0.15 0.11 61 1010.1
20260508013022 48 5 0.0 0.0 0.00 0.15 0.11 61 1009.9
20260508011524 49 360 0.0 0.0 0.00 0.15 0.11 60 1009.7
20260508010040 50 5 0.0 0.0 0.00 0.15 0.11 54 1009.5
20260508004518 51 5 0.0 0.0 0.00 0.15 0.11 53 1009.3
20260508003013 52 5 0.0 0.0 0.00 0.15 0.11 52 1009.2
20260508001519 53 360 0.0 0.0 0.00 0.15 0.11 50 1009.0
20260508000023 54 360 0.0 0.0 0.00 0.16 0.11 47 1009.1
20260507234527 54 332 0.0 0.0 0.00 0.16 0.11 47 1008.8
20260507233010 55 328 0.0 8.0 0.00 0.16 0.11 45 1008.6
20260507231513 56 28 1.0 9.0 0.00 0.16 0.11 45 1008.5
20260507230026 56 17 4.0 11.0 0.00 0.16 0.11 43 1008.3
20260507224524 57 334 2.0 9.0 0.00 0.16 0.11 43 1008.4
20260507223027 56 17 1.0 8.0 0.00 0.16 0.11 44 1008.4
20260507221511 57 29 6.0 13.0 0.00 0.16 0.11 42 1008.4
20260507220014 58 42 0.0 11.0 0.00 0.16 0.11 41 1008.3
20260507214522 59 44 4.0 17.0 0.00 0.16 0.11 41 1008.3
20260507213024 58 30 6.0 11.0 0.00 0.16 0.11 42 1008.2
20260507211535 58 48 4.0 12.0 0.00 0.16 0.11 41 1008.0
20260507210013 59 319 5.0 18.0 0.00 0.16 0.11 39 1008.0
20260507204521 60 352 6.0 12.0 0.00 0.16 0.11 40 1007.9
20260507203032 58 64 6.0 14.0 0.00 0.17 0.11 40 1007.9
20260507201524 58 10 5.0 11.0 0.00 0.17 0.11 42 1007.9
20260507200028 59 42 8.0 13.0 0.00 0.18 0.11 41 1008.0
20260507194516 60 333 5.0 14.0 0.00 0.20 0.11 42 1008.3
20260507193020 58 25 8.0 16.0 0.00 0.21 0.11 41 1008.3
20260507191523 60 63 3.0 15.0 0.00 0.22 0.11 40 1008.6
20260507190026 60 45 2.0 14.0 0.00 0.23 0.11 39 1008.7
20260507184529 59 315 7.0 19.0 0.00 0.23 0.11 41 1008.7
20260507183042 60 271 3.0 15.0 0.00 0.23 0.11 41 1008.8
20260507181520 58 34 9.0 17.0 0.00 0.23 0.11 39 1009.0
20260507180030 59 44 8.0 16.0 0.00 0.24 0.11 38 1009.1
20260507174527 58 15 8.0 16.0 0.00 0.25 0.11 40 1009.3
20260507173028 58 22 8.0 19.0 0.00 0.26 0.11 38 1009.5
20260507171506 58 21 7.0 14.0 0.00 0.27 0.11 38 1009.8
20260507170008 59 28 4.0 11.0 0.00 0.28 0.11 41 1009.8
20260507164505 58 49 4.0 14.0 0.00 0.28 0.11 41 1009.8
20260507163007 57 9 4.0 15.0 0.00 0.28 0.11 41 1009.9
20260507161510 56 45 9.0 16.0 0.00 0.28 0.11 39 1010.1
20260507160027 56 51 8.0 14.0 0.00 0.28 0.11 41 1010.2
20260507154508 55 292 8.0 15.0 0.00 0.28 0.11 44 1010.3
20260507153006 54 48 6.0 15.0 0.00 0.28 0.11 46 1010.4
20260507151510 55 35 11.0 19.0 0.00 0.28 0.11 43 1010.6
20260507150011 54 360 10.0 20.0 0.00 0.28 0.11 45 1010.7
20260507144512 53 47 5.0 15.0 0.00 0.28 0.11 47 1010.7
20260507143015 53 18 6.0 15.0 0.00 0.28 0.11 50 1010.8
20260507141516 52 32 6.0 12.0 0.00 0.28 0.11 53 1010.9
20260507140013 51 46 7.0 19.0 0.00 0.28 0.11 54 1010.9
20260507134512 50 345 5.0 17.0 0.00 0.28 0.11 57 1010.8
20260507133014 49 5 6.0 15.0 0.00 0.28 0.11 60 1010.8
20260507131512 49 17 6.0 11.0 0.00 0.28 0.11 63 1010.8
20260507130021 49 63 1.0 8.0 0.00 0.28 0.11 66 1010.8
20260507124518 48 36 6.0 16.0 0.00 0.28 0.11 66 1010.7
20260507123014 47 48 6.0 16.0 0.00 0.28 0.11 76 1010.7
20260507121515 47 9 4.0 16.0 0.00 0.28 0.11 78 1010.5
20260507120019 46 42 8.0 19.0 0.00 0.28 0.11 84 1010.4
20260507114516 46 33 0.0 8.0 0.00 0.28 0.11 89 1010.3
20260507113018 46 53 2.0 7.0 0.00 0.28 0.11 90 1010.3
20260507111518 46 44 0.0 6.0 0.00 0.28 0.11 91 1010.1
20260507110028 46 32 0.0 6.0 0.00 0.28 0.11 91 1010.1
20260507104522 46 16 0.0 0.0 0.00 0.28 0.11 91 1010.0
20260507103018 46 13 0.0 0.0 0.00 0.28 0.11 91 1009.9
20260507101520 46 11 0.0 0.0 0.00 0.28 0.11 91 1009.4
20260507100024 46 25 0.0 8.0 0.00 0.28 0.11 91 1009.3